一网星座-0410星 (ONEWEB-0410 )

导读 | 豆包AI

ONEWEB-0410是隶属于英国OneWeb公司低轨宽带卫星星座的组网卫星,于2022年2月10日发射。OneWeb是全球第二大卫星互联网运营商,其星座由数百颗低轨卫星组成,旨在为全球用户提供广覆盖、低延迟的高速互联网接入服务。该卫星成功入轨后,助力OneWeb完成全球星座组网进程,为偏远地区、空中及海事等场景提供宽带连接服务,推动全球互联网普及与互联互通。

Basic Information
目录编号:
51622
目录名称:
ONEWEB-0410
国际标识:
2022-012A
轨道中心:
EARTH
卫星名称:
一网星座-0410星
卫星全名:
一网星座-0410星 (ONEWEB-0410 )
卫星状态:
在轨 (已飞行1493 天)
发射日期:
2022-02-10 UTC
国别 :
英国 (GB)
星等 :
--
Orbit Information
数据来源 国际轨道数据 AOE轨道数据
星历时间 2026-03-14T04:11:42+0800
15小时前
查看轨道信息
2026-03-13T15:00:00+0800
1天前
查看轨道信息
半长轴 7571.848km 7571.853km
偏心率 0.0001457 0.0001589
轨道倾角 87.916° 87.918°
近地点辐角 33.764° 25.777°
升交点赤经 24.781° 24.892°
平近点角 326.358° 247.857°
近地点 1192.607km 1192.512km
远地点 1194.815km 1194.92km
周期 109.286分钟 109.286分钟
每日圈数 13.176496 13.176483
Detailed Information
平衡模式:
三轴稳定
覆盖范围:
全球
运营商:
一网卫星公司
运营商所在国:
英国
制造商(研发单位):
一网卫星公司
制造商所在国:
英国
使用方式:
暂无
Satellite Introduction
OneWeb卫星网络由648颗重约125公斤的微型卫星组成,运行在1200公里的轨道上。 每颗卫星都能够提供至少每秒8千兆位的吞吐量,以使用其高吞吐量的Ku频段有效载荷为家庭和移动平台提供互联网接入。该卫星仍在工作。
2D Orbit Map
3D Orbit Map
Orbit Altitude Analysis Chart
Orbit Inclination Analysis Chart
Orbit Comprehensive Analysis Chart
View Comprehensive Chart